Find OTC-P1-1

NORAD ID: 63351 Int'l Des: 2025-061 Owner: ORORA Country: D operational
LEOCIRCULARRETROGRADESSO

Live Position

Loading 3D Globe...

About OTC-P1-1

Description loading...

Upcoming Passes

Passes for default location (London). Set your location on the main map for personalized predictions.

Altitude History

Loading altitude history...

Two-Line Element Set

1 63351U 25061A 26104.41017514 .00002490 00000-0 14407-3 0 9992
2 63351 97.5597 80.2776 0020499 122.2173 238.1049 15.13022882 57948
Epoch: Apr 14, 2026 • Age: 13 hours

Current Status

Altitude 530.0 km
Velocity 7.61 km/s
Sub-Earth Point 57.69°N, 116.33°W
Launch Date Mar 26, 2025
Age 1 years
Type other

Technical Details

Classification Payload
Mass 15.00 kg
Dry Mass 15.00 kg
Total Mass 15.00 kg
Length 0.30 m
Diameter 0.20 m
Span 0.40 m
Shape Box+2 pan
Manufacturer SPIREG
Bus Type Cubesat 6U
Phase Status In Orbit
Owner/State ORORA/D

Most Searched